O'Neill, NE

11:08 AM CDT on May 26, 2017 (GMT -0500)
The O'Neill Municipal-Baker

Weather History for KONL - February, 2015

Change the Weather History Date:

Friday, February 27, 2015

  Actual Average Record
Temperature  
Mean Temperature 10 °F -  
Max Temperature 25 °F 41 °F 75 °F (2016)
Min Temperature -6 °F 22 °F -16 °F (1962)
Degree Days  
Heating Degree Days 56    
Moisture  
Dew Point -3 °F    
Average Humidity 59    
Maximum Humidity 85    
Minimum Humidity 27    
Precipitation  
Precipitation 0.00 in - - ()
Sea Level Pressure  
Sea Level Pressure 30.41 in    
Wind  
Wind Speed 5 mph (SSW)    
Max Wind Speed 12 mph    
Max Gust Speed 17 mph    
Visibility 10 miles    
Events      
Averages and records for this station are not official NWS values.
T = Trace of Precipitation, MM = Missing Value Source: NWS Daily Summary

Daily Weather History Graph

Daily Weather History Graph

Search for Another Location

Airport or City:

Trip Planner

Search our weather history database for the weather conditions in past years. The results will help you decide how hot, cold, wet, or windy it might be!

Date:

Astronomy

Feb. 27, 2015 Rise Set
Actual Time 7:13 AM CST 6:21 PM CST
Civil Twilight 6:45 AM CST 6:50 PM CST
Nautical Twilight 6:12 AM CST 7:22 PM CST
Astronomical Twilight 5:40 AM CST 7:55 PM CST
Moon 1:09 PM CST (2/27) 3:09 AM CST (2/27)
Length of Visible Light 12h 04m
Length of Day
11h 08m
Waxing Gibbous, 70% of the Moon is Illuminated
Feb 27
Waxing Gibbous
Mar 5
Full
Mar 13
Last Quarter
Mar 20
New
Mar 27
First Quarter

Hourly Weather History & Observations

Time (CST) Temp. Windchill Dew Point Humidity Pressure Visibility Wind Dir Wind Speed Gust Speed Precip Events Conditions
12:15 AM -0.9 °F - -6.7 °F 77% 30.50 in 10.0 mi Calm Calm - N/A   Clear
12:35 AM -0.4 °F -8.3 °F -5.8 °F 78% 30.50 in 10.0 mi North 3.5 mph - N/A   Clear
12:55 AM -1.8 °F - -6.9 °F 79% 30.50 in 10.0 mi Calm Calm - N/A   Clear
1:15 AM -1.5 °F - -6.3 °F 80% 30.50 in 10.0 mi Calm Calm - N/A   Clear
1:35 AM -3.1 °F -13.5 °F -6.7 °F 85% 30.50 in 10.0 mi SW 4.6 mph - N/A   Scattered Clouds
1:55 AM -2.4 °F -10.6 °F -6.5 °F 82% 30.50 in 10.0 mi SW 3.5 mph - N/A   Clear
2:15 AM -3.3 °F -11.6 °F -6.9 °F 85% 30.50 in 10.0 mi WSW 3.5 mph - N/A   Clear
2:35 AM -2.9 °F -11.2 °F -6.7 °F 84% 30.50 in 10.0 mi West 3.5 mph - N/A   Clear
2:55 AM -3.1 °F -13.5 °F -6.9 °F 84% 30.49 in 10.0 mi West 4.6 mph - N/A   Clear
3:15 AM -3.3 °F -11.6 °F -7.2 °F 83% 30.48 in 10.0 mi West 3.5 mph - N/A   Clear
3:35 AM -2.6 °F -12.9 °F -6.9 °F 82% 30.48 in 10.0 mi West 4.6 mph - N/A   Clear
3:55 AM -3.6 °F -12.0 °F -8.1 °F 81% 30.48 in 10.0 mi SW 3.5 mph - N/A   Clear
4:15 AM -6.0 °F -14.7 °F -9.9 °F 83% 30.48 in 10.0 mi SW 3.5 mph - N/A   Clear
4:35 AM -5.8 °F -14.5 °F -9.9 °F 82% 30.48 in 10.0 mi SW 3.5 mph - N/A   Clear
4:55 AM -5.4 °F - -9.4 °F 83% 30.48 in 10.0 mi Calm Calm - N/A   Clear
5:15 AM -5.6 °F -14.3 °F -9.9 °F 82% 30.48 in 10.0 mi SW 3.5 mph - N/A   Clear
5:35 AM -5.1 °F -15.8 °F -9.4 °F 82% 30.48 in 10.0 mi WSW 4.6 mph - N/A   Clear
5:55 AM -4.4 °F -12.8 °F -8.5 °F 82% 30.47 in 10.0 mi SW 3.5 mph - N/A   Clear
6:15 AM -4.9 °F -15.6 °F -9.4 °F 81% 30.47 in 10.0 mi SW 4.6 mph - N/A   Clear
6:35 AM -4.9 °F -15.6 °F -9.0 °F 82% 30.47 in 10.0 mi WSW 4.6 mph - N/A   Clear
6:55 AM -6.3 °F -15.1 °F -10.8 °F 81% 30.47 in 10.0 mi SSW 3.5 mph - N/A   Clear
7:15 AM -6.3 °F -17.3 °F -10.8 °F 81% 30.47 in 10.0 mi SW 4.6 mph - N/A   Clear
7:35 AM -5.8 °F -14.5 °F -10.3 °F 81% 30.47 in 10.0 mi SSW 3.5 mph - N/A   Clear
7:55 AM -2.9 °F - -7.1 °F 82% 30.47 in 10.0 mi Calm Calm - N/A   Clear
8:15 AM 0.1 °F -7.7 °F -4.5 °F 81% 30.47 in 10.0 mi SW 3.5 mph - N/A   Clear
8:35 AM 2.5 °F -7.0 °F -2.4 °F 80% 30.48 in 10.0 mi SSW 4.6 mph - N/A   Clear
8:55 AM 5.0 °F -2.1 °F 0.1 °F 80% 30.48 in 10.0 mi SSW 3.5 mph - N/A   Clear
9:15 AM 8.8 °F -1.1 °F 2.5 °F 76% 30.48 in 10.0 mi SSW 5.8 mph - N/A   Clear
9:35 AM 10.6 °F -0.2 °F 3.9 °F 75% 30.48 in 10.0 mi SSW 6.9 mph - N/A   Clear
9:55 AM 11.7 °F 0.0 °F 3.0 °F 68% 30.47 in 10.0 mi South 8.1 mph - N/A   Clear
10:15 AM 12.2 °F 2.9 °F 1.4 °F 62% 30.47 in 10.0 mi SSW 5.8 mph - N/A   Clear
10:35 AM 13.1 °F 5.4 °F 2.3 °F 62% 30.47 in 10.0 mi SSW 4.6 mph - N/A   Clear
10:55 AM 14.2 °F 3.1 °F 1.8 °F 58% 30.46 in 10.0 mi SW 8.1 mph - N/A   Clear
11:15 AM 15.3 °F 4.4 °F 2.1 °F 56% 30.45 in 10.0 mi SSW 8.1 mph - N/A   Clear
11:35 AM 17.1 °F 5.0 °F 3.2 °F 55% 30.44 in 10.0 mi South 10.4 mph - N/A   Clear
11:55 AM 17.2 °F 6.8 °F 3.0 °F 54% 30.44 in 10.0 mi SW 8.1 mph - N/A   Clear
12:15 PM 18.1 °F 8.9 °F 2.8 °F 51% 30.43 in 10.0 mi South 6.9 mph - N/A   Clear
12:35 PM 18.7 °F 9.5 °F 0.9 °F 46% 30.42 in 10.0 mi SW 6.9 mph 10.4 mph N/A   Clear
12:55 PM 20.7 °F 10.2 °F 1.4 °F 43% 30.41 in 10.0 mi South 9.2 mph - N/A   Clear
1:15 PM 21.0 °F 10.6 °F -0.9 °F 38% 30.40 in 10.0 mi SSW 9.2 mph - N/A   Clear
1:35 PM 21.6 °F 10.6 °F -2.2 °F 35% 30.38 in 10.0 mi SW 10.4 mph - N/A   Clear
1:55 PM 21.9 °F 15.7 °F -3.1 °F 33% 30.37 in 10.0 mi SSW 4.6 mph - N/A   Clear
2:15 PM 23.0 °F 11.7 °F -3.5 °F 31% 30.36 in 10.0 mi South 11.5 mph 17.3 mph N/A   Clear
2:35 PM 23.7 °F 12.6 °F -4.2 °F 30% 30.35 in 10.0 mi South 11.5 mph - N/A   Clear
2:55 PM 24.3 °F 14.6 °F -4.7 °F 28% 30.34 in 10.0 mi South 9.2 mph - N/A   Clear
3:15 PM 24.8 °F 16.1 °F -4.7 °F 28% 30.34 in 10.0 mi South 8.1 mph 16.1 mph N/A   Clear
3:35 PM 25.2 °F 15.1 °F -4.7 °F 27% 30.33 in 10.0 mi South 10.4 mph - N/A   Clear
3:55 PM 24.8 °F 14.6 °F -4.4 °F 28% 30.33 in 10.0 mi South 10.4 mph - N/A   Clear
4:15 PM 24.4 °F 13.5 °F -4.4 °F 28% 30.32 in 10.0 mi SSE 11.5 mph - N/A   Clear
4:35 PM 24.8 °F 14.0 °F -4.0 °F 28% 30.32 in 10.0 mi South 11.5 mph - N/A   Clear
4:55 PM 24.6 °F 13.8 °F -4.2 °F 28% 30.32 in 10.0 mi South 11.5 mph - N/A   Clear
5:15 PM 23.9 °F 12.9 °F -4.7 °F 29% 30.31 in 10.0 mi South 11.5 mph - N/A   Clear
5:35 PM 23.2 °F 12.0 °F -4.9 °F 29% 30.31 in 10.0 mi South 11.5 mph - N/A   Clear
5:55 PM 22.3 °F 12.2 °F -4.4 °F 31% 30.31 in 10.0 mi South 9.2 mph - N/A   Clear
6:15 PM 20.8 °F 10.4 °F -3.5 °F 34% 30.31 in 10.0 mi SSE 9.2 mph - N/A   Clear
6:35 PM 18.9 °F 8.8 °F -3.1 °F 38% 30.31 in 10.0 mi SSE 8.1 mph - N/A   Clear
6:55 PM 17.8 °F 7.5 °F -2.7 °F 40% 30.32 in 10.0 mi SSE 8.1 mph - N/A   Clear
7:15 PM 17.1 °F 5.8 °F -2.0 °F 43% 30.32 in 10.0 mi SSE 9.2 mph - N/A   Clear
7:35 PM 17.1 °F 5.8 °F -1.7 °F 44% 30.32 in 10.0 mi SSE 9.2 mph - N/A   Clear
7:55 PM 16.3 °F 4.1 °F -0.9 °F 47% 30.33 in 10.0 mi SSE 10.4 mph - N/A   Clear
8:10 PM 16.2 °F 3.2 °F -0.8 °F 47% 30.32 in 10.0 mi SSE 11.5 mph - N/A   Clear
8:35 PM 15.3 °F 2.0 °F -0.4 °F 50% 30.33 in 10.0 mi SSE 11.5 mph - N/A   Clear
8:55 PM 15.1 °F 1.8 °F -0.4 °F 50% 30.32 in 10.0 mi SSE 11.5 mph - N/A   Clear
9:15 PM 15.1 °F 1.8 °F -0.4 °F 50% 30.33 in 10.0 mi SSE 11.5 mph - N/A   Clear
9:35 PM 14.5 °F 1.9 °F 0.1 °F 53% 30.33 in 10.0 mi SSE 10.4 mph - N/A   Clear
9:55 PM 14.2 °F 1.4 °F 0.3 °F 54% 30.33 in 10.0 mi SSE 10.4 mph - N/A   Clear
10:15 PM 14.2 °F 1.4 °F 0.3 °F 54% 30.33 in 10.0 mi SSE 10.4 mph - N/A   Clear
10:35 PM 13.8 °F 0.2 °F 0.5 °F 56% 30.33 in 10.0 mi SSE 11.5 mph - N/A   Clear
10:55 PM 12.6 °F -1.4 °F 0.5 °F 59% 30.32 in 10.0 mi SSE 11.5 mph - N/A   Clear
11:15 PM 12.0 °F -1.3 °F 0.9 °F 61% 30.32 in 10.0 mi South 10.4 mph - N/A   Clear
11:35 PM 11.8 °F -1.5 °F 0.9 °F 61% 30.32 in 10.0 mi South 10.4 mph 16.1 mph N/A   Clear
11:55 PM 12.0 °F -2.0 °F 0.9 °F 61% 30.31 in 10.0 mi South 11.5 mph - N/A   Clear